Regional Weather Roundup
Issued by NWS

Home | Current Version | Previous Version | Graphics & Text | Print | Product List | Glossary On
Versions: 1 2 3 4 5 6 7 8 9 10 11 12 13 14 15 16 17 18 19 20 21 22 23 24 25 26 27 28 29 30 31 32 33 34 35 36 37 38 39 40 41 42 43 44 45 46 47 48 49 50
000
ASUS43 KMKX 031821
RWRWI

WISCONSIN REGIONAL WEATHER ROUNDUP
NATIONAL WEATHER SERVICE MILWAUKEE/SULLIVAN WI
1200 PM CST TUE MAR 03 2015

NOTE: "FAIR" INDICATES FEW OR NO CLOUDS BELOW 12,000 FEET WITH NO
SIGNIFICANT WEATHER AND/OR OBSTRUCTIONS TO VISIBILITY.

WIZ001-002-006>008-014>016-023>028-031900-
NORTHWEST WISCONSIN

CITY           SKY/WX    TMP DP  RH WIND       PRES   REMARKS
SUPERIOR ARPT  MIX PCPN  24  19  83 W16       29.62S WCI  11
6HR MIN TEMP:  20; 6HR MAX TEMP:  24; 6HR PCP:  0.03;

ASHLAND        LGT SNOW  24  20  84 SW9       29.59F FOG     WCI  14
6HR MIN TEMP:  20; 6HR MAX TEMP:  24; 6HR PCP:  0.10;

HAYWARD        LGT SNOW  23  18  81 SW9       29.60S VSB 1   WCI  13
6HR MIN TEMP:  20; 6HR MAX TEMP:  23; 6HR PCP:  0.12;

SIREN          LGT SNOW  25  20  81 W13       29.63F WCI  14
6HR MIN TEMP:  20; 6HR MAX TEMP:  25;

CUMBERLAND     LGT SNOW  25  19  80 SW9       29.62S WCI  15
RICE LAKE      LGT SNOW  26  20  79 SW7       29.65R WCI  18
6HR MIN TEMP:  20; 6HR MAX TEMP:  26; 6HR PCP:  0.07;

CHETEK         LGT SNOW  26  20  76 SW6       29.63S WCI  20
6HR MIN TEMP:  20; 6HR MAX TEMP:  26; 6HR PCP:  0.07;

LADYSMITH      LGT SNOW  25  20  80 SW8       29.63R WCI  16
6HR MIN TEMP:  21; 6HR MAX TEMP:  25; 6HR PCP:  0.03;

EAU CLAIRE     LGT SNOW  26  19  74 W10       29.64S WCI  16
6HR MIN TEMP:  21; 6HR MAX TEMP:  26; 6HR PCP:  0.08;

MENOMONIE      LGT SNOW  29  21  74 SW7       29.65F WCI  21
6HR MIN TEMP:  22; 6HR MAX TEMP:  29; 6HR PCP:  0.06;

NEW RICHMOND   LGT SNOW  28  22  78 W12       29.64F WCI  18
6HR MIN TEMP:  21; 6HR MAX TEMP:  28; 6HR PCP:  0.01;

OSCEOLA        LGT SNOW  28  23  80 W10       29.68S WCI  19
6HR MIN TEMP:  21; 6HR MAX TEMP:  29;

$$

WIZ003>005-009-010-017-018-031900-
NORTH CENTRAL WISCONSIN

CITY           SKY/WX    TMP DP  RH WIND       PRES   REMARKS
MANITOWISH WTR LGT SNOW  20  17  87 SW8       29.56S VSB 3/4 WCI  11
6HR MIN TEMP:  17; 6HR MAX TEMP:  20;

ARBOR VITAE    LGT SNOW  22  17  83 SW10      29.56S WCI  11
6HR MIN TEMP:  19; 6HR MAX TEMP:  22; 6HR PCP:  0.03;

WOODRUFF       LGT SNOW  22  17  83 SW10      29.56S WCI  11
6HR MIN TEMP:  19; 6HR MAX TEMP:  22; 6HR PCP:  0.03;

RHINELANDER    LGT SNOW  21  16  81 SW7       29.55F WCI  12
6HR MIN TEMP:  18; 6HR MAX TEMP:  20; 6HR PCP:  0.08;

EAGLE RIVER    SNOW      21  16  81 SW7       29.54F VSB 1/2 WCI  12
6HR MIN TEMP:  18; 6HR MAX TEMP:  21;

LAND O LAKES   SNOW      22  18  85 SW6       29.54F VSB 1/2 WCI  14
6HR MIN TEMP:  18; 6HR MAX TEMP:  22;

PHILLIPS       LGT SNOW  22  17  82 SW8       29.57S WCI  13
6HR MIN TEMP:  19; 6HR MAX TEMP:  22; 6HR PCP:  0.03;

TOMAHAWK       LGT SNOW  22  18  83 CALM      29.58S
6HR MIN TEMP:  19; 6HR MAX TEMP:  22; 6HR PCP:  0.03;

MEDFORD        LGT SNOW  22  17  80 SW6       29.59R WCI  15
6HR MIN TEMP:  19; 6HR MAX TEMP:  23; 6HR PCP:  0.02;

MERRILL        LGT SNOW  23  19  84 SW6       29.58F WCI  16
6HR MIN TEMP:  20; 6HR MAX TEMP:  23; 6HR PCP:  0.04;

$$

WIZ029-030-035-036-043>047-031900-
CENTRAL WISCONSIN

CITY           SKY/WX    TMP DP  RH WIND       PRES   REMARKS
WAUSAU         LGT SNOW  23  21  92 SW6       29.57F FOG     WCI  16
6HR MIN TEMP:  20; 6HR MAX TEMP:  22; 6HR PCP:  0.06;

MOSINEE        NOT AVBL
MARSHFIELD     CLOUDY    24  20  84 W8        29.59F FOG     WCI  15
6HR MIN TEMP:  21; 6HR MAX TEMP:  24; 6HR PCP:  0.01;

STEVENS POINT  MIX PCPN  22  20  93 SW7       29.60F WCI  14
6HR MIN TEMP:  19; 6HR MAX TEMP:  22;

WAUPACA        CLOUDY    28  24  86 SW7       29.61F FOG     WCI  21
6HR MIN TEMP:  24; 6HR MAX TEMP:  28;

WAUTOMA        CLOUDY    27  25  93 SW7       29.62F FOG     WCI  19
6HR MIN TEMP:  22; 6HR MAX TEMP:  26; 6HR PCP: TRACE;

WISC RAPIDS    CLOUDY    24  20  84 SW8       29.63F FOG     WCI  15
6HR MIN TEMP:  21; 6HR MAX TEMP:  24; 6HR PCP:  0.01;

CAMP DOUGLAS   FLURRIES  27  27 100 W6        29.63F WCI  20
                                      6HR PCP:  0.01;

$$

WIZ011>013-019>022-031-037>040-048>050-031900-
NORTHEAST WISCONSIN

CITY           SKY/WX    TMP DP  RH WIND       PRES   REMARKS
ANTIGO         HVY SNOW  21  19  91 SW3       29.56F VSB 1/4
6HR MIN TEMP:  18; 6HR MAX TEMP:  21; 6HR PCP:  0.06;

SHAWANO        CLOUDY    28  25  86 SW7       29.61F FOG     WCI  21
6HR MIN TEMP:  24; 6HR MAX TEMP:  28; 6HR PCP:  0.01;

OCONTO         CLOUDY    28  28  97 S5        29.61F WCI  23
6HR MIN TEMP:  22; 6HR MAX TEMP:  28; 6HR PCP:  0.02;

STURGEON BAY   CLOUDY    28  25  86 S16G22    29.61F WCI  17
6HR MIN TEMP:  25; 6HR MAX TEMP:  28;

GREEN BAY      LGT SNOW  28  26  92 SW12      29.62F FOG     WCI  18
6HR MIN TEMP:  25; 6HR MAX TEMP:  28; 6HR PCP:  0.12;

MANITOWOC      MIX PCPN  30  29  96 S13       29.62F FOG     WCI  20
6HR MIN TEMP:  28; 6HR MAX TEMP:  30; 6HR PCP:  0.02;

APPLETON       FRZ DRZL  27  25  93 SW10      29.61F VSB 1   WCI  17
CLINTONVILLE   MIX PCPN  27  25  93 SW9       29.61F WCI  17
OSHKOSH        CLOUDY    28  25  88 SW7       29.60F FOG     WCI  21
6HR MIN TEMP:  24; 6HR MAX TEMP:  28; 6HR PCP:  0.07;

$$

WIZ032>034-041-042-053>061-031900-
SOUTHWEST WISCONSIN

CITY           SKY/WX    TMP DP  RH WIND       PRES   REMARKS
LA CROSSE      CLOUDY    28  24  85 W5        29.66F WCI  23
6HR MIN TEMP:  25; 6HR MAX TEMP:  28; 6HR PCP:  0.01;

SPARTA         CLOUDY    26  25  95 W6        29.65F FOG     WCI  20
6HR MIN TEMP:  23; 6HR MAX TEMP:  26;

VIROQUA        CLOUDY    26  26 100 W9        29.63S WCI  17
6HR MIN TEMP:  22; 6HR MAX TEMP:  26;

BOSCOBEL       CLOUDY    30  27  88 VRB5      29.66F FOG     WCI  25
6HR MIN TEMP:  24; 6HR MAX TEMP:  29; 6HR PCP:  0.03;

PRAIRIE DU CHI CLOUDY    28  26  93 CALM      29.67F FOG
6HR MIN TEMP:  24; 6HR MAX TEMP:  28; 6HR PCP:  0.01;

PLATTEVILLE    CLOUDY    31  30  94 SW12      29.65R WCI  22
6HR MIN TEMP:  24; 6HR MAX TEMP:  31; 6HR PCP:  0.01;

$$

WIZ056-057-062-063-064-067-068-031900-
SOUTH CENTRAL WISCONSIN

CITY           SKY/WX    TMP DP  RH WIND       PRES   REMARKS
REEDSBURG      CLOUDY    27  25  93 W8        29.62F FOG     WCI  18
6HR MIN TEMP:  22; 6HR MAX TEMP:  27;

BARABOO/DELLS  CLOUDY    27  24  91 W7        29.62S FOG     WCI  19
6HR MIN TEMP:  22; 6HR MAX TEMP:  27;

LONE ROCK      CLOUDY    28  26  92 W6        29.65F FOG     WCI  22
6HR MIN TEMP:  24; 6HR MAX TEMP:  28; 6HR PCP:  0.02;

MINERAL POINT  CLOUDY    32  30  93 SW10G16   29.63S FOG     WCI  24
MADISON        FRZ DRZL  30  27  88 SW6       29.63F FOG     WCI  24
6HR MIN TEMP:  23; 6HR MAX TEMP:  30; 6HR PCP:  0.09;

MIDDLETON      CLOUDY    32  29  88 SW10      29.62F WCI  24
6HR MIN TEMP:  25; 6HR MAX TEMP:  32;

WATERTOWN      CLOUDY    30  30 100 SW9       29.62F FOG     WCI  22
6HR MIN TEMP:  23; 6HR MAX TEMP:  30; 6HR PCP:  0.05;

MONROE           N/A     32  30  93 SW14G21   29.63R FOG     WCI  22
JANESVILLE     FRZ DRZL  32  30  93 SW15      29.64F WCI  22
$$

WIZ051-052-058>065-066-070>072-031900-
SOUTHEAST WISCONSIN

CITY           SKY/WX    TMP DP  RH WIND       PRES   REMARKS
MILWAUKEE      DRZL/FOG  31  28  89 SW12      29.62F VSB 1   WCI  22
6HR MIN TEMP:  25; 6HR MAX TEMP:  31; 6HR PCP:  0.29;

WAUKESHA       LGT SNOW  28  27  93 S12       29.63F WCI  18
MILWAUKEE/TIMM LGT SNOW  30  27  86 SW8       29.63F VSB 1   WCI  23
RACINE         CLOUDY    31  29  92 SW12      29.64F FOG     WCI  22
6HR MIN TEMP:  26; 6HR MAX TEMP:  31; 6HR PCP: TRACE;

BURLINGTON     CLOUDY    30  28  93 SW15      29.63F FOG     WCI  19
6HR MIN TEMP:  22; 6HR MAX TEMP:  30; 6HR PCP:  0.16;

KENOSHA        FRZ DRZL  32  30  92 SW12      29.62F FOG     WCI  23
6HR MIN TEMP:  25; 6HR MAX TEMP:  32; 6HR PCP:  0.08;

FOND DU LAC    FRZ RAIN  29  25  85 SW14      29.62S FOG     WCI  18
6HR MIN TEMP:  24; 6HR MAX TEMP:  29; 6HR PCP:  0.01;

SHEBOYGAN      CLOUDY    30  27  88 S16       29.61F FOG     WCI  19
6HR MIN TEMP:  26; 6HR MAX TEMP:  30; 6HR PCP:  0.02;

WEST BEND      MIX PCPN  30  27  86 SW8       29.61F WCI  23
JUNEAU         MIX PCPN  27  26  95 SW9       29.63F WCI  18
6HR MIN TEMP:  22; 6HR MAX TEMP:  27;

$$

LSZ147-162-031900-
LAKE SUPERIOR

STATION/POSITION TIME  TEMP    WIND        PRES    WAVE
                       AIR SEA DIR/SP/G            HT/PER
                 (UTC) (F)     (DEG/KT/KT) (MB)    (FT/S)
DEVILS ISLAND    1800   22     230/ 11/ 14 1002.4F
PORT WING        1740   24     220/  8/ 12 1002.7F
SAXON HARBOR     1710   23     200/  1/  9 1003.0
$$

LMZ867-665-643>646-031900-
LAKE MICHIGAN

STATION/POSITION TIME  TEMP    WIND        PRES    WAVE



USA.gov is the U.S. government's official web portal to all federal, state and local government web resources and services.